Lid_Strength_Index
1 5 7 7 10 12 14 13 11 11 11 9 8 9 9 9 10 12 3 1 0 0 -0 -1 -1 -1 -1 -1 -2 -2 -2 -2 -2 -2 -2 -2 -2 -2 -2 -2 -2 -2 -2 -2 -2 -2 -2 -1 -1
4 5 6 9 12 15 14 12 12 10 9 6 7 7 9 11 6 6 4 0 -0 -0 -0 -0 -1 -2 -1 -2 -2 -2 -2 -2 -2 -2 -2 -2 -2 -2 -2 -2 -2 -2 -2 -2 -2 -2 -2 -2 -2
5 6 8 11 14 15 14 11 10 9 8 8 8 6 8 9 6 4 2 0 -0 0 0 -0 -1 -2 -1 -2 -2 -2 -2 -2 -1 -2 -2 -2 -2 -2 -2 -2 -3 -2 -2 -2 -2 -2 -1 -2 -2
6 7 9 12 14 12 11 10 8 9 8 7 7 9 7 4 5 3 0 -0 0 0 0 -1 -1 -2 -1 -2 -2 -2 -2 -2 -2 -2 -2 -2 -2 -2 -2 -2 -2 -2 -2 -2 -2 -1 -1 -1 -1
7 9 12 13 13 12 11 8 8 9 8 8 7 9 9 4 3 1 1 0 0 1 1 -0 -1 -2 -2 -2 -2 -2 -2 -2 -2 -2 -2 -1 -2 -2 -2 -2 -2 -2 -2 -2 -1 -1 -1 -1 -1
9 9 13 15 13 11 11 8 8 8 8 7 8 9 8 3 3 2 1 1 0 1 0 -0 0 -1 -1 -2 -2 -2 -2 -2 -2 -2 -2 -2 -2 -2 -2 -2 -2 -2 -2 -1 -1 -1 -1 -1 -1
10 11 13 14 13 12 11 8 9 9 8 8 6 10 8 6 3 2 2 1 1 0 1 0 0 0 0 -1 -1 -2 -2 -2 -2 -2 -2 -2 -2 -2 -2 -2 -3 -2 -1 -1 -1 -1 -1 -1 -1
10 11 13 14 13 13 10 9 9 7 8 7 5 9 9 6 3 2 2 2 1 0 1 1 0 0 0 0 0 -1 -1 -1 -2 -2 -1 -1 -1 -2 -1 -2 -2 -2 -2 -1 -1 -1 -1 -0 -0
10 12 14 12 12 11 10 9 9 7 7 6 6 6 6 4 3 3 3 2 1 1 1 1 1 1 0 0 1 1 0 -0 -1 -0 -0 1 1 0 1 0 -1 -2 -2 -2 -1 -1 -1 -1 -0
11 12 12 11 11 11 11 10 10 8 8 8 8 7 5 4 4 4 4 3 3 2 2 1 0 1 1 -0 0 1 0 1 0 1 1 1 2 2 1 2 1 -1 -1 -2 -1 -1 -1 -0 3
10 12 11 10 10 10 10 10 10 9 10 8 7 7 6 5 5 5 4 3 3 2 2 1 1 1 1 0 1 1 1 1 1 2 2 2 2 3 2 3 3 2 1 1 0 1 1 2 2
11 9 9 8 9 10 11 10 10 10 9 8 8 6 5 5 5 4 4 4 4 3 2 1 1 1 1 0 1 1 1 2 2 2 2 3 3 4 4 3 3 3 2 2 2 2 2 3 3
10 9 8 8 8 9 9 10 10 10 8 8 8 7 5 5 4 4 3 3 4 4 3 2 1 1 1 0 0 1 1 1 1 2 2 3 3 4 4 4 4 3 3 3 3 3 3 3 3
9 9 8 8 8 8 9 9 10 9 9 9 7 6 5 5 4 5 4 4 3 3 3 2 2 1 1 1 1 0 1 1 2 2 2 3 3 3 4 4 4 4 3 3 3 3 3 4 3
8 10 9 9 9 9 9 10 10 8 8 8 8 8 8 4 4 4 3 3 3 2 2 3 2 1 2 1 1 0 0 1 2 2 2 2 3 3 3 3 4 3 3 3 3 3 4 4 3
12 11 15 10 9 8 9 13 9 8 9 8 8 8 8 7 6 3 3 2 2 2 2 2 2 2 2 2 1 1 1 1 2 2 2 2 2 3 3 3 3 3 3 3 3 4 4 4 4
12 16 15 12 9 10 10 13 9 8 8 9 9 8 8 8 7 7 4 2 2 2 2 2 2 2 3 2 1 1 1 1 1 2 2 2 2 3 3 3 2 3 3 3 3 4 4 5 4
14 14 13 14 12 11 11 11 9 8 9 9 9 9 8 7 6 5 6 4 2 2 2 2 2 2 2 2 2 2 1 1 1 1 2 2 2 3 3 3 3 4 3 3 4 4 4 4 4
12 14 15 14 10 12 12 11 10 8 9 9 8 7 7 6 5 4 4 5 5 2 2 2 2 2 2 3 3 2 2 2 2 1 1 2 2 2 3 3 3 4 4 4 4 4 5 4 4
12 14 14 12 10 12 12 12 9 9 8 7 7 7 6 6 5 5 5 6 6 4 2 2 2 1 2 2 2 2 2 1 1 1 1 1 1 2 2 2 3 3 4 4 4 5 6 5 5
12 14 14 13 12 11 13 13 11 8 9 8 8 7 6 6 6 6 5 6 6 6 4 2 1 1 1 1 2 3 3 3 3 2 1 1 1 2 2 2 2 3 3 3 4 4 5 5 6
15 11 12 13 15 17 12 18 13 13 11 10 9 8 8 7 7 6 6 6 6 6 5 4 2 1 1 1 2 3 3 3 2 2 2 1 1 2 2 2 2 2 3 3 3 4 4 5 5
13 10 12 13 15 16 14 17 16 14 13 10 9 9 8 9 9 8 8 7 8 7 7 6 3 2 2 2 2 2 3 2 2 3 3 2 2 1 2 2 2 2 3 3 3 3 4 4 4
9 11 12 13 14 19 15 16 15 13 12 10 10 9 9 10 10 10 9 9 9 9 8 6 5 6 3 3 3 3 3 3 3 3 3 3 2 2 2 2 2 2 2 3 3 3 3 4 4
11 13 19 20 20 20 15 16 14 12 11 10 10 9 10 10 10 10 10 10 9 9 9 8 9 9 8 8 6 4 2 2 2 2 2 2 2 3 2 2 2 3 2 3 3 3 3 3 4
13 13 17 22 22 19 15 18 14 10 10 8 9 9 9 10 11 11 11 10 10 10 9 9 9 10 9 9 8 8 7 5 4 2 1 1 1 1 1 1 2 2 2 2 2 2 2 2 3
13 15 11 16 17 19 17 14 11 10 10 10 10 10 11 11 11 12 11 11 10 10 10 10 10 10 10 9 9 9 8 8 7 6 5 4 3 1 1 1 1 2 2 2 2 2 2 2 2
11 10 16 16 21 23 19 18 16 13 11 11 11 11 11 12 12 12 12 11 11 11 10 11 11 11 10 10 9 9 9 9 9 8 8 7 6 5 4 2 1 1 1 1 1 2 1 2 1
13 14 13 14 16 20 19 18 13 14 13 12 11 12 13 13 13 13 12 12 12 11 12 12 12 12 12 11 11 10 10 10 10 10 10 10 9 9 7 6 4 3 1 1 1 1 1 1 2
11 12 13 17 18 17 17 18 11 12 12 11 13 13 13 13 13 13 13 14 14 13 12 13 13 13 13 11 12 11 12 11 12 12 11 11 11 10 9 8 7 6 4 2 1 1 1 2 2